Terminal Aerodrome Forecast
Issued by NWS Tulsa, OK

Home | Current Version | Previous Version | Text Only | Print | Product List | Glossary On
Versions: 1 2 3 4 5 6 7 8 9 10 11 12
000
FTUS44 KTSA 241100
TAFTUL
TAF
KTUL 241120Z 2412/2512 VRB05KT P6SM SCT250
     FM241500 13007KT P6SM SCT050
     FM250000 18005KT P6SM SKC=

USA.gov is the U.S. government's official web portal to all federal, state and local government web resources and services.